FREGAT DEB, 45879

Orbit data source: Space-Track

FREGAT DEB, 45879 is space debris in LEO originally from a launch on Mon, 18 Jul 2011 UTC launched from the Tyuratam Missile And Space Complex (TTMTR). Debris objects in space refer to the collection of defunct objects orbiting the Earth. Examples of debris include non-operational satellites, rocket bodies, and fragments generated from explosions, collisions, or faulty payload assembly.

Loading next visibility...
Identifier
45879, 2011-037CY
Orbit
LEO
Country
Flag of CISCIS
Related business
Manufacturer
Lavochkin
Mission
Spacecraft
Bus & Motor
Unknown
Mass
Unknown
Launch date (UTC)
2011-07-18 (14 years ago)
Launch vehicle
Unknown
Launch site
Tyuratam Missile And Space Complex (TTMTR)
Object type
Payload
Rocket body
Debris
Shape & HBR
Unknown
Radar Cross Section
Small (<0.1 m²)

Expand to show TLE details & history
Last TLE update: 10 months ago

TLE from 10 months ago
0 FREGAT DEB
1 45879U 11037CY  24324.75185606  .00123368  00000-0  40211+0 0  9998
2 45879  50.8370 167.9886 1365995 173.5692 188.4809 11.30231915166843
Epoch: 2024-11-19T18:02Z
TLE epoch observation values (Epoch: 2024-11-19T18:02:40.363Z)
Latitude
0.00002°
Longitude
-161.93736°
Altitude
3,145.703 km
Speed
6.017 km/s
True Right ascension
11h 11m 57s
True Declination
0° 00' 00"
Sunlit
Object was in daylight at epoch
Visualization orbit readout
Latitude
Unknown
Longitude
Unknown
Altitude
Unknown
Speed
Unknown
Apparent Right ascension
Unknown
Apparent Declination
Unknown
Sunlit
N/A
Visualization observer readout
Local Sidereal Time
17:49:14
Azimuth
Unknown
Elevation
Unknown
Doppler factor
Unknown
Orbital elements
Apogee altitude
3,155.501 km
Perigee altitude
863.946 km
Semi-major axis
8,387.861 km
Eccentricity
0.1366
Inclination
50.837°
RAAN
167.9886°
Arg. of periapsis
173.5692°
True anomaly
186.50777°
Mean anomaly
188.4809°
Eccentric anomaly
187.46418°
Mean motion
2.82531 °/min
Orbital period
127.42 mins
BSTAR
0.40211
Loading maneuver chart data...
Computing Atmospheric mass density...
Loading historical data...
Loading historical data...
Loading historical data...
Loading historical data...
Loading historical data...
Loading historical data...
Loading historical data...

Documentation

Showing up to 5 results
|